TimeGMT,TemperatureF,Dew PointF,Humidity,Sea Level PressureIn,VisibilityMPH,Wind Direction,Wind SpeedMPH,Gust SpeedMPH,PrecipitationIn,Events,Conditions,WindDirDegrees,DateUTC
12:00 AM,44,43,96,30.17,19,SW,8.9,,,,Mostly Cloudy,230,2013-01-02 00:00:00
12:00 AM,44.6,42.8,93,30.15,6.2,SW,9.2,-,N/A,,Mostly Cloudy,230,2013-01-02 00:00:00
12:30 AM,44.6,42.8,93,30.12,6.2,SW,8.1,-,N/A,,Mostly Cloudy,220,2013-01-02 00:30:00
1:00 AM,44.6,44.6,100,30.12,6.2,South,5.8,-,N/A,,Mostly Cloudy,190,2013-01-02 01:00:00
1:30 AM,44.6,44.6,100,30.12,6.2,SSW,6.9,-,N/A,,Mostly Cloudy,200,2013-01-02 01:30:00
2:00 AM,46.4,46.4,100,30.12,0.6,SW,10.4,-,N/A,Fog,Fog,220,2013-01-02 02:00:00
2:30 AM,46.4,46.4,100,30.12,6.2,SW,10.4,-,N/A,,Mostly Cloudy,230,2013-01-02 02:30:00
3:00 AM,48.2,48.2,100,30.12,6.2,SW,10.4,-,N/A,,Mostly Cloudy,230,2013-01-02 03:00:00
3:30 AM,48.2,48.2,100,30.12,6.2,SW,8.1,-,N/A,,Mostly Cloudy,220,2013-01-02 03:30:00
4:00 AM,48.2,48.2,100,30.12,5.6,SW,9.2,-,N/A,,Overcast,230,2013-01-02 04:00:00
4:30 AM,48.2,48.2,100,30.12,0.6,SW,9.2,-,N/A,Fog,Fog,230,2013-01-02 04:30:00
5:00 AM,48.2,48.2,100,30.12,0.6,WSW,10.4,-,N/A,Fog,Fog,240,2013-01-02 05:00:00
5:30 AM,48.2,48.2,100,30.15,0.6,WSW,10.4,-,N/A,Fog,Fog,240,2013-01-02 05:30:00
6:00 AM,49,49,100,30.17,7,WSW,11.2,,,Rain,Light Rain,250,2013-01-02 06:00:00
6:00 AM,50.0,50.0,100,30.15,6.2,WSW,11.5,-,N/A,,Overcast,250,2013-01-02 06:00:00
6:30 AM,50.0,50.0,100,30.15,6.2,WSW,9.2,-,N/A,,Overcast,240,2013-01-02 06:30:00
7:00 AM,50.0,50.0,100,30.15,6.2,SW,9.2,-,N/A,,Mostly Cloudy,230,2013-01-02 07:00:00
7:30 AM,50.0,50.0,100,30.15,6.2,SW,11.5,-,N/A,,Mostly Cloudy,230,2013-01-02 07:30:00
8:00 AM,50.0,50.0,100,30.15,6.2,WSW,15.0,-,N/A,,Mostly Cloudy,240,2013-01-02 08:00:00
8:30 AM,50.0,50.0,100,30.18,6.2,WSW,13.8,-,N/A,,Mostly Cloudy,250,2013-01-02 08:30:00
9:00 AM,50.0,50.0,100,30.18,6.2,WSW,16.1,-,N/A,,Mostly Cloudy,250,2013-01-02 09:00:00
9:30 AM,50.0,50.0,100,30.18,6.2,WSW,13.8,-,N/A,,Mostly Cloudy,250,2013-01-02 09:30:00
10:00 AM,51.8,51.8,100,30.18,6.2,WSW,13.8,-,N/A,,Mostly Cloudy,240,2013-01-02 10:00:00
10:30 AM,51.8,51.8,100,30.21,6.2,WSW,12.7,-,N/A,,Mostly Cloudy,250,2013-01-02 10:30:00
11:00 AM,51.8,51.8,100,30.21,6.2,WSW,16.1,-,N/A,,Mostly Cloudy,240,2013-01-02 11:00:00
11:30 AM,51.8,51.8,100,30.21,6.2,WSW,10.4,-,N/A,,Mostly Cloudy,250,2013-01-02 11:30:00
12:00 PM,53,52,95,30.23,25,West,17.9,,,,Mostly Cloudy,260,2013-01-02 12:00:00
12:00 PM,53.6,51.8,94,30.21,6.2,West,17.3,-,N/A,,Mostly Cloudy,260,2013-01-02 12:00:00
12:30 PM,53.6,51.8,94,30.21,6.2,West,11.5,-,N/A,,Mostly Cloudy,270,2013-01-02 12:30:00
1:00 PM,53.6,51.8,94,30.21,6.2,WSW,11.5,-,N/A,,Mostly Cloudy,250,2013-01-02 13:00:00
1:30 PM,53.6,51.8,94,30.21,6.2,SW,9.2,-,N/A,,Mostly Cloudy,220,2013-01-02 13:30:00
2:00 PM,51.8,51.8,100,30.21,6.2,SW,10.4,-,N/A,,Mostly Cloudy,230,2013-01-02 14:00:00
2:30 PM,51.8,51.8,100,30.21,6.2,WSW,11.5,-,N/A,,Mostly Cloudy,240,2013-01-02 14:30:00
3:00 PM,51.8,51.8,100,30.24,6.2,SW,10.4,-,N/A,,Mostly Cloudy,230,2013-01-02 15:00:00
3:30 PM,51.8,51.8,100,30.24,6.2,WSW,6.9,-,N/A,,Mostly Cloudy,250,2013-01-02 15:30:00
4:00 PM,51.8,51.8,100,30.24,6.2,WSW,9.2,-,N/A,,Mostly Cloudy,250,2013-01-02 16:00:00
4:30 PM,50.0,50.0,100,30.24,6.2,SW,9.2,-,N/A,,Scattered Clouds,230,2013-01-02 16:30:00
5:00 PM,50.0,50.0,100,30.27,6.2,WSW,10.4,-,N/A,,Scattered Clouds,240,2013-01-02 17:00:00
5:30 PM,50.0,50.0,100,30.27,6.2,SW,9.2,-,N/A,,Scattered Clouds,220,2013-01-02 17:30:00
6:00 PM,51,51,99,30.29,19,SW,11.2,,,,Mostly Cloudy,230,2013-01-02 18:00:00
6:00 PM,51.8,51.8,100,30.27,6.2,SW,10.4,-,N/A,,Mostly Cloudy,230,2013-01-02 18:00:00
6:30 PM,51.8,51.8,100,30.27,6.2,West,9.2,-,N/A,,Mostly Cloudy,270,2013-01-02 18:30:00
7:00 PM,51.8,51.8,100,30.30,6.2,WSW,15.0,-,N/A,,Mostly Cloudy,250,2013-01-02 19:00:00
7:30 PM,51.8,50.0,94,30.30,6.2,SW,16.1,-,N/A,,Mostly Cloudy,230,2013-01-02 19:30:00
8:00 PM,50.0,50.0,100,30.30,6.2,WSW,10.4,-,N/A,,Mostly Cloudy,250,2013-01-02 20:00:00
8:30 PM,50.0,50.0,100,30.30,6.2,SW,11.5,-,N/A,,Mostly Cloudy,230,2013-01-02 20:30:00
9:00 PM,50.0,50.0,100,30.33,6.2,SW,11.5,-,N/A,,Mostly Cloudy,220,2013-01-02 21:00:00
9:30 PM,50.0,50.0,100,30.33,6.2,WSW,9.2,-,N/A,,Mostly Cloudy,240,2013-01-02 21:30:00
10:00 PM,50.0,50.0,100,30.33,6.2,WSW,10.4,-,N/A,,Mostly Cloudy,250,2013-01-02 22:00:00
10:30 PM,48.2,48.2,100,30.36,6.2,WSW,10.4,-,N/A,,Mostly Cloudy,250,2013-01-02 22:30:00
11:00 PM,48.2,48.2,100,30.36,6.2,WSW,11.5,-,N/A,,Scattered Clouds,240,2013-01-02 23:00:00
11:30 PM,48.2,48.2,100,30.36,6.2,SW,11.5,-,N/A,,Partly Cloudy,230,2013-01-02 23:30:00